CW9197 Juva FI current weather conditions

sailwx.info

Wind from 243

Air temperature 15.0° C
Dewpoint 13.7° C

Last reported at 2019-Jul-20 21:10 UTC.
Time now 2019-Jul-20 22:08 UTC

Location: N 61°53' E 027°53'.
View on Google Maps.

See reports from other nearby stations

  
Tides and Currents Weather Stations Pressure Air Temp Water Temp Dewpoint Dewpoint Depression Visibility Wind Speed Wind Dir Waves Ship Positions
date/time (UTC)wind fromknots sea level pressurealtimeterstation pressurevisibilityair tempwater tempwave heightnotes
2019-Jul-20 21:10 243 15.0
2019-Jul-20 21:00 15.0
2019-Jul-20 20:50 214 15.0
2019-Jul-20 20:40 025 15.0
2019-Jul-20 20:30 042 0 gusting 0 15.6
2019-Jul-20 20:20 048 0 gusting 1 15.6
2019-Jul-20 20:10 16.1
2019-Jul-20 20:00 16.1
2019-Jul-20 19:50 16.7
2019-Jul-20 19:40 17.2
2019-Jul-20 19:30 17.2
2019-Jul-20 19:20 17.8
2019-Jul-20 19:10 17.8
2019-Jul-20 19:00 18.3
2019-Jul-20 18:50 18.3
2019-Jul-20 18:40 18.9
2019-Jul-20 18:30 18.9
2019-Jul-20 18:20 19.4
2019-Jul-20 18:10 19.4
2019-Jul-20 18:00 20.0
2019-Jul-20 17:50 20.0
2019-Jul-20 17:40 045 20.0
2019-Jul-20 17:30 071 20.6
2019-Jul-20 17:20 340 20.6
2019-Jul-20 17:10 20.6
2019-Jul-20 17:00 317 20.6
2019-Jul-20 16:50 063 20.6
2019-Jul-20 16:40 003 20.6
2019-Jul-20 16:30 021 20.6
2019-Jul-20 16:20 043 20.6
2019-Jul-20 16:10 093 20.6
2019-Jul-20 16:00 059 0 gusting 2 20.6
2019-Jul-20 15:50 071 0 gusting 2 20.6
2019-Jul-20 15:40 051 20.6
2019-Jul-20 15:30 042 21.1
2019-Jul-20 15:20 067 21.1
2019-Jul-20 15:10 071 0 gusting 4 21.1
2019-Jul-20 15:00 353 21.1
2019-Jul-20 14:50 058 0 gusting 4 20.6
2019-Jul-20 14:40 048 20.6
2019-Jul-20 14:30 057 0 gusting 4 20.6
2019-Jul-20 14:20 088 21.1
2019-Jul-20 14:10 257 0 gusting 9 21.7
2019-Jul-20 14:00 209 21.1
2019-Jul-20 13:50 060 0 gusting 4 21.1
2019-Jul-20 13:40 237 0 gusting 3 21.1
2019-Jul-20 13:30 121 0 gusting 3 21.1
2019-Jul-20 13:20 030 0 gusting 4 21.1
2019-Jul-20 13:10 050 20.6
2019-Jul-20 13:00 029 0 gusting 3 20.6
2019-Jul-20 12:50 008 1 gusting 6 21.1
2019-Jul-20 12:40 350 0 gusting 3 21.1
2019-Jul-20 12:30 032 0 gusting 4 20.6
2019-Jul-20 12:20 029 0 gusting 3 20.6
2019-Jul-20 12:10 030 0 gusting 3 20.6
2019-Jul-20 12:00 044 1 gusting 6 20.6
2019-Jul-20 11:50 057 1 gusting 5 20.6
2019-Jul-20 11:40 028 0 gusting 4 21.1
2019-Jul-20 11:30 002 2 gusting 6 21.1
2019-Jul-20 11:20 062 3 gusting 7 20.6
2019-Jul-20 11:10 050 2 gusting 5 21.1
2019-Jul-20 11:00 013 21.1
2019-Jul-20 10:50 080 2 gusting 6 21.1
2019-Jul-20 10:40 356 2 gusting 8 20.6
2019-Jul-20 10:30 037 1 gusting 6 20.0
2019-Jul-20 10:20 012 1 gusting 5 20.0
2019-Jul-20 10:10 020 0 gusting 3 20.0
2019-Jul-20 10:00 037 1 gusting 4 19.4
2019-Jul-20 09:50 352 2 gusting 5 19.4
2019-Jul-20 09:40 327 1 gusting 6 19.4
2019-Jul-20 09:30 353 1 gusting 4 19.4
2019-Jul-20 09:20 300 1 gusting 5 19.4
2019-Jul-20 09:10 005 0 gusting 4 19.4
2019-Jul-20 09:00 358 0 gusting 6 18.9
2019-Jul-20 08:50 040 1 gusting 6 18.3
2019-Jul-20 08:40 351 2 gusting 6 17.8
2019-Jul-20 08:30 359 1 gusting 5 17.8
2019-Jul-20 08:20 010 1 gusting 6 17.2
2019-Jul-20 08:10 063 0 gusting 6 17.2
2019-Jul-20 08:00 042 0 gusting 3 17.2
2019-Jul-20 07:50 045 0 gusting 5 17.2
2019-Jul-20 07:40 011 1 gusting 4 17.2
2019-Jul-20 07:30 021 0 gusting 3 17.2
2019-Jul-20 07:20 017 1 gusting 4 16.7
2019-Jul-20 07:10 037 1 gusting 5 16.7
2019-Jul-20 07:00 011 1 gusting 5 16.7
2019-Jul-20 06:50 041 1 gusting 5 16.1
2019-Jul-20 06:40 024 0 gusting 3 16.1
2019-Jul-20 06:30 024 0 gusting 3 15.6
2019-Jul-20 06:20 354 0 gusting 4 15.0
2019-Jul-20 06:10 024 15.0
2019-Jul-20 06:00 047 0 gusting 3 14.4
2019-Jul-20 05:50 022 14.4
2019-Jul-20 05:40 007 0 gusting 3 14.4
2019-Jul-20 05:30 013 0 gusting 1 14.4
2019-Jul-20 05:20 359 1 gusting 6 14.4
2019-Jul-20 05:10 017 0 gusting 3 14.4
2019-Jul-20 05:00 004 0 gusting 3 14.4
2019-Jul-20 04:50 017 1 gusting 5 14.4
2019-Jul-20 04:40 011 1 gusting 6 13.9
2019-Jul-20 04:30 017 0 gusting 3 13.9
2019-Jul-20 04:20 032 1 gusting 4 13.9
2019-Jul-20 04:10 017 1 gusting 4 13.9
2019-Jul-20 04:00 016 1 gusting 5 13.9
2019-Jul-20 03:50 016 0 gusting 4 13.9
2019-Jul-20 03:40 026 0 gusting 5 13.9
2019-Jul-20 03:30 13.9
2019-Jul-20 03:20 342 0 gusting 4 13.9
2019-Jul-20 03:10 342 1 gusting 4 13.9
2019-Jul-20 03:00 340 1 gusting 5 13.9
2019-Jul-20 02:50 010 13.9
2019-Jul-20 02:40 011 0 gusting 9 13.3
2019-Jul-20 02:30 017 0 gusting 3 13.3
2019-Jul-20 02:20 040 0 gusting 2 13.3
2019-Jul-20 02:10 352 0 gusting 10 13.3
2019-Jul-20 02:00 011 1 gusting 4 13.3
2019-Jul-20 01:50 009 1 gusting 5 13.3
2019-Jul-20 01:40 020 0 gusting 4 13.3
2019-Jul-20 01:30 021 0 gusting 4 13.3
2019-Jul-20 01:20 007 1 gusting 6 13.3
2019-Jul-20 01:10 005 0 gusting 4 13.3
2019-Jul-20 01:00 352 1 gusting 6 13.3
2019-Jul-20 00:50 352 0 gusting 8 13.3
2019-Jul-20 00:40 009 0 gusting 7 13.3
2019-Jul-20 00:30 021 0 gusting 3 13.3
2019-Jul-20 00:20 006 0 gusting 5 13.3
2019-Jul-20 00:10 017 0 gusting 5 13.9
2019-Jul-20 00:00 357 1 gusting 6 13.9
2019-Jul-19 23:50 13.3
2019-Jul-19 23:40 004 0 gusting 6 13.3
2019-Jul-19 23:30 003 0 gusting 3 13.3
2019-Jul-19 23:20 038 0 gusting 4 13.3
2019-Jul-19 23:10 041 1 gusting 4 13.3
2019-Jul-19 23:00 359 0 gusting 5 13.9
2019-Jul-19 22:50 002 0 gusting 4 13.9
2019-Jul-19 22:40 022 0 gusting 4 13.9
2019-Jul-19 22:30 012 0 gusting 3 13.9
2019-Jul-19 22:20 023 0 gusting 4 13.9
2019-Jul-19 22:10 027 0 gusting 4 13.9
2019-Jul-19 22:00 043 0 gusting 4 13.9
2019-Jul-19 21:50 048 13.9
2019-Jul-19 21:40 048 0 gusting 4 13.9
2019-Jul-19 21:30 034 13.9
2019-Jul-19 21:20 036 1 gusting 5 14.4
2019-Jul-19 21:10 019 0 gusting 4 14.4
2019-Jul-19 21:00 013 0 gusting 3 14.4
2019-Jul-19 20:50 037 14.4
2019-Jul-19 20:40 044 0 gusting 3 14.4
2019-Jul-19 20:30 038 1 gusting 6 14.4
2019-Jul-19 20:20 036 0 gusting 4 14.4
2019-Jul-19 20:10 052 1 gusting 5 15.0
2019-Jul-19 20:00 057 2 gusting 5 15.0
2019-Jul-19 19:50 048 2 gusting 8 15.0
2019-Jul-19 19:40 046 1 gusting 5 15.0
2019-Jul-19 19:30 047 0 gusting 3 15.0
2019-Jul-19 19:20 018 15.0
2019-Jul-19 19:10 041 15.0
2019-Jul-19 19:00 053 15.0
2019-Jul-19 18:50 067 15.0
2019-Jul-19 18:40 029 15.6
2019-Jul-19 18:30 010 15.6
2019-Jul-19 18:20 339 0 gusting 2 15.6
2019-Jul-19 18:10 357 0 gusting 4 15.6
2019-Jul-19 18:00 345 15.6
2019-Jul-19 17:50 348 15.6
2019-Jul-19 17:40 315 0 gusting 2 15.6
2019-Jul-19 17:30 326 0 gusting 3 15.6
2019-Jul-19 17:20 013 15.6
2019-Jul-19 17:10 003 0 gusting 2 16.1
2019-Jul-19 17:00 356 0 gusting 4 16.1
2019-Jul-19 16:50 035 0 gusting 4 16.1
2019-Jul-19 16:40 041 1 gusting 6 16.1
2019-Jul-19 16:30 047 2 gusting 6 16.7
2019-Jul-19 16:20 045 1 gusting 6 16.7
2019-Jul-19 16:10 033 3 gusting 8 16.7
2019-Jul-19 16:00 030 4 gusting 12 16.7
2019-Jul-19 15:50 029 2 gusting 8 16.7
2019-Jul-19 15:40 035 0 gusting 6 16.7
2019-Jul-19 15:30 025 2 gusting 8 16.7
2019-Jul-19 15:20 044 4 gusting 9 16.7
2019-Jul-19 15:10 041 1 gusting 5 16.7
2019-Jul-19 15:00 061 1 gusting 6 16.7
2019-Jul-19 14:50 051 4 gusting 13 17.2
2019-Jul-19 14:40 053 3 gusting 8 17.2
2019-Jul-19 14:30 057 3 gusting 8 17.2
2019-Jul-19 14:20 054 2 gusting 6 16.7
2019-Jul-19 14:10 050 3 gusting 6 16.1
2019-Jul-19 14:00 051 3 gusting 9 16.7
2019-Jul-19 13:50 053 3 gusting 10 17.2
2019-Jul-19 13:40 050 3 gusting 6 17.8
2019-Jul-19 13:30 021 3 gusting 7 17.8
2019-Jul-19 13:20 039 3 gusting 11 17.2
2019-Jul-19 13:10 020 3 gusting 10 17.8
2019-Jul-19 13:00 019 5 gusting 14 18.3
2019-Jul-19 12:50 039 2 gusting 9 17.8
2019-Jul-19 12:40 033 4 gusting 12 18.3
2019-Jul-19 12:30 028 2 gusting 11 18.3
2019-Jul-19 12:20 358 3 gusting 8 18.3
2019-Jul-19 12:10 006 2 gusting 7 17.8
2019-Jul-19 12:00 021 4 gusting 10 17.8
2019-Jul-19 11:50 033 3 gusting 10 17.8
2019-Jul-19 11:40 032 4 gusting 12 17.8
2019-Jul-19 11:30 041 0 gusting 4 17.2
2019-Jul-19 11:20 030 3 gusting 13 17.2
2019-Jul-19 11:10 039 3 gusting 8 17.2
2019-Jul-19 11:00 030 2 gusting 9 17.2
2019-Jul-19 10:50 359 1 gusting 6 16.7
2019-Jul-19 10:40 025 2 gusting 7 16.7
2019-Jul-19 10:30 038 1 gusting 8 16.1
2019-Jul-19 10:20 358 1 gusting 8 16.1
2019-Jul-19 10:10 358 2 gusting 7 15.6
2019-Jul-19 10:00 008 2 gusting 8 15.6
2019-Jul-19 09:50 356 3 gusting 8 15.6
2019-Jul-19 09:40 001 3 gusting 11 15.0
2019-Jul-19 09:30 021 2 gusting 5 15.0
2019-Jul-19 09:20 050 1 gusting 4 15.0
2019-Jul-19 09:10 044 1 gusting 6 15.0
2019-Jul-19 09:00 027 1 gusting 8 15.0
2019-Jul-19 08:50 034 3 gusting 7 15.0
2019-Jul-19 08:40 045 4 gusting 10 15.0
2019-Jul-19 08:30 050 4 gusting 9 15.0
2019-Jul-19 08:20 057 2 gusting 12 15.6
2019-Jul-19 08:10 044 1 gusting 6 15.6
2019-Jul-19 08:00 043 1 gusting 5 15.6
2019-Jul-19 07:50 017 2 gusting 7 15.6
2019-Jul-19 07:40 042 1 gusting 6 15.6
2019-Jul-19 07:30 038 1 gusting 6 15.6
2019-Jul-19 07:20 023 1 gusting 6 15.6
2019-Jul-19 07:10 009 2 gusting 6 15.0
2019-Jul-19 07:00 017 0 gusting 6 15.0
2019-Jul-19 06:50 026 2 gusting 7 15.0
2019-Jul-19 06:40 020 1 gusting 5 15.0
2019-Jul-19 06:30 016 1 gusting 5 15.0
2019-Jul-19 06:20 029 0 gusting 5 14.4
2019-Jul-19 06:10 046 1 gusting 5 14.4
2019-Jul-19 06:00 023 0 gusting 5 14.4
2019-Jul-19 05:50 044 0 gusting 3 14.4
2019-Jul-19 05:40 058 1 gusting 3 15.0
2019-Jul-19 05:30 031 2 gusting 7 15.0
2019-Jul-19 05:20 043 0 gusting 5 15.0
2019-Jul-19 05:10 058 1 gusting 5 15.0
2019-Jul-19 05:00 047 1 gusting 4 15.0
2019-Jul-19 04:50 060 2 gusting 5 15.6
2019-Jul-19 04:40 059 2 gusting 9 15.6
2019-Jul-19 04:30 038 1 gusting 5 15.6
2019-Jul-19 04:20 040 0 gusting 3 15.6
2019-Jul-19 04:10 039 2 gusting 8 15.0
2019-Jul-19 04:00 049 1 gusting 4 15.0
2019-Jul-19 03:50 029 2 gusting 8 15.0
2019-Jul-19 03:40 046 0 gusting 4 15.0
2019-Jul-19 03:30 039 2 gusting 6 15.0
2019-Jul-19 03:20 040 1 gusting 6 14.4
2019-Jul-19 03:10 039 2 gusting 6 14.4
2019-Jul-19 03:00 039 1 gusting 6 14.4
2019-Jul-19 02:50 022 1 gusting 5 14.4
2019-Jul-19 02:40 033 0 gusting 3 14.4
2019-Jul-19 02:30 024 1 gusting 4 14.4
2019-Jul-19 02:20 020 1 gusting 5 14.4
2019-Jul-19 02:10 029 0 gusting 5 14.4
2019-Jul-19 02:00 028 1 gusting 4 14.4
2019-Jul-19 01:50 027 1 gusting 5 14.4
2019-Jul-19 01:40 030 0 gusting 5 14.4
2019-Jul-19 01:30 029 0 gusting 2 13.9
2019-Jul-19 01:20 030 0 gusting 3 13.9
2019-Jul-19 01:10 023 0 gusting 2 13.9
2019-Jul-19 01:00 029 0 gusting 4 13.9
2019-Jul-19 00:50 022 1 gusting 4 13.9
2019-Jul-19 00:40 030 0 gusting 3 13.9
2019-Jul-19 00:30 055 13.9
2019-Jul-19 00:20 033 13.9
2019-Jul-19 00:10 049 13.9
2019-Jul-19 00:00 053 13.9
2019-Jul-18 23:50 030 13.9
2019-Jul-18 23:40 029 13.9
2019-Jul-18 23:30 020 13.9
2019-Jul-18 23:20 018 0 gusting 3 13.9
2019-Jul-18 23:10 033 13.9
2019-Jul-18 23:00 036 13.9
2019-Jul-18 22:50 050 14.4
2019-Jul-18 22:40 012 14.4
2019-Jul-18 22:30 029 14.4
2019-Jul-18 22:20 017 14.4
2019-Jul-18 22:10 357 0 gusting 3 14.4
2019-Jul-18 22:00 026 0 gusting 5 14.4